Home   Weather   Spydeberg   Past weeks

Flag for Norway Past Weather in Spydeberg, Norway — Yesterday and Last 2 Weeks

Now
55 °F

Cool.


Feels Like: 55 °F
Forecast: 50 / 75 °F
Wind: 5 mph from North

Location: Rygge

Current Time: May 26, 2017 at 3:36:29 am

Latest Report: May 26, 2017 at 3:20 am


Visibility: N/A

Pressure: 30.07 "Hg

Humidity: 67%

Dew Point: 45 °F

Location of SpydebergLocation

Past Weather in Spydeberg — Graph

°F

Spydeberg Temperature Yesterday

Maximum temperature yesterday: 70 °F (at 5:50 pm)
Minimum temperature yesterday: 52 °F (at 4:50 am)
Average temperature yesterday: 61 °F

High & Low Weather Summary for the Past Weeks

 TemperatureHumidityPressure
High70 °F (May 20, 2:50 pm)100% (May 11, 3:50 am)30.36 "Hg (May 11, 3:50 am)
Low36 °F (May 11, 7:50 am)42% (May 22, 1:50 pm)29.65 "Hg (May 11, 4:50 am)
Average52 °F80%30.01 "Hg
* Reported May 11 1:20 am — May 26 1:50 am, Spydeberg. Weather by CustomWeather, © 2017

Note: Actual official high and low records may vary slightly from our data, if they occured in-between our weather recording intervals... More about our weather records

Advertising

Spydeberg Weather History for the Previous 24 Hours

Scroll right to see more
 ConditionsComfort  
Time TempWeatherWind HumidityBarometerVisibility
1:50 am
Fri, May 26
57 °FCool.7 mph63%30.04 "HgN/A
1:20 am59 °FRefreshingly cool.7 mph59%30.04 "HgN/A
12:50 am61 °FRefreshingly cool.10 mph55%30.04 "HgN/A
12:20 am61 °FRefreshingly cool.9 mph55%30.04 "HgN/A
11:50 pm
Thu, May 25
61 °FRefreshingly cool.7 mph55%30.01 "HgN/A
11:20 pm61 °FRefreshingly cool.9 mph59%30.01 "HgN/A
10:50 pm63 °FMild.9 mph52%30.01 "HgN/A
10:20 pm64 °FMild.13 mph49%30.01 "HgN/A
9:50 pm64 °FMild.14 mph49%29.98 "HgN/A
9:20 pm66 °FMild.12 mph49%29.98 "HgN/A
8:50 pm68 °FMild.15 mph46%29.98 "HgN/A
8:20 pm68 °FMild.13 mph46%29.98 "HgN/A
7:50 pm68 °FPassing clouds.15 mph46%29.95 "HgN/A
7:20 pm70 °FSunny.9 mph46%29.95 "Hg10 mi
6:50 pm68 °FSunny.12 mph46%29.95 "Hg10 mi
6:20 pm70 °FPassing clouds.13 mph43%29.95 "HgN/A
5:50 pm70 °FPassing clouds.9 mph50%29.95 "HgN/A
5:20 pm68 °FSunny.8 mph56%29.98 "Hg10 mi
4:50 pm64 °FSunny.10 mph60%29.98 "Hg10 mi
4:20 pm63 °FSunny.12 mph59%29.98 "Hg10 mi
3:50 pm63 °FSunny.12 mph59%29.98 "Hg10 mi
3:20 pm61 °FSunny.13 mph59%29.98 "Hg10 mi
2:50 pm61 °FSunny.14 mph55%30.01 "Hg10 mi
2:20 pm61 °FSunny.14 mph52%30.01 "Hg10 mi
1:50 pm61 °FSunny.13 mph52%30.01 "Hg10 mi
1:20 pm63 °FPassing clouds.12 mph49%30.01 "HgN/A
12:50 pm64 °FPassing clouds.5 mph43%30.04 "HgN/A
12:20 pm64 °FPassing clouds.3 mph43%30.04 "HgN/A
11:50 am64 °FPassing clouds.6 mph43%30.04 "HgN/A
11:20 am63 °FPassing clouds.7 mph45%30.04 "HgN/A
10:50 am63 °FPassing clouds.6 mph49%30.04 "HgN/A
10:20 am63 °FPassing clouds.5 mph42%30.04 "HgN/A
9:50 am61 °FPassing clouds.6 mph45%30.04 "HgN/A
9:20 am61 °FPassing clouds.6 mph45%30.04 "HgN/A
8:50 am59 °FPassing clouds.7 mph51%30.04 "HgN/A
8:20 am59 °FSunny.8 mph55%30.04 "Hg10 mi
7:50 am57 °FRefreshingly cool.8 mph51%30.04 "HgN/A
7:20 am57 °FRefreshingly cool.9 mph55%30.04 "HgN/A
6:50 am55 °FRefreshingly cool.9 mph55%30.04 "HgN/A
6:20 am55 °FRefreshingly cool.8 mph59%30.04 "HgN/A
5:50 am54 °FPassing clouds.6 mph63%30.01 "HgN/A
5:20 am52 °FCool.6 mph62%30.01 "HgN/A
4:50 am52 °FPassing clouds.6 mph62%30.01 "HgN/A
4:20 am54 °FPassing clouds.7 mph58%30.01 "HgN/A
3:50 am54 °FPassing clouds.9 mph58%30.01 "HgN/A
3:20 am54 °FCool.9 mph58%29.98 "HgN/A
Weather by CustomWeather, © 2017

See weather overviewHow to use our weather pages